Find Starlink 3804

NORAD ID: 52270 Int'l Des: 2022-041 Owner: SPXS Country: US Constellation: starlink operational
LEOCIRCULAR

实时位置

正在加载3D地球...

关于 Starlink 3804

正在加载描述...

即将过境

Passes for default location (London). Set your location on the main map for personalized predictions.

高度历史

Loading altitude history...

两行轨道根数

1 52270U 22041K 26127.24239561 -.00000762 00000-0 -29809-4 0 9994
2 52270 53.2163 206.2970 0001391 97.7728 262.3422 15.08838318223203
Epoch: May 7, 2026 • Age: 14 hours

当前状态

高度 542.2 km
速度 7.59 km/s
星下点 -8.74°S, 125.98°W
发射日期 Apr 21, 2022
运行时间 4 years
类型 internet

技术详情

分类 Payload
质量 297.00 kg
干质量 275.00 kg
总质量 297.00 kg
长度 0.20 m
直径 2.80 m
跨度 9.00 m
形状 Box + pan
制造商 SPXS
平台类型 Starlink
阶段状态 In Orbit
所有者/国家 SPXS/US

Most Searched